Location: Burland Observatory
(39.4088°N, 105.4217°W)
Time: 22:47:42
(UTC-07:00)

Courier 1B Rocket - Visible Passes

Search period start: 14 December 2019 00:00
Search period end: 24 December 2019 00:00
Orbit: 920 x 1202 km, 28.2° (Epoch: 14 December)

Date Brightness Start Highest point End Pass type
(mag) Time Alt. Az. Time Alt. Az. Time Alt. Az.
14 Dec 6.8 04:19:41 21° S 04:21:36 23° SSE 04:26:53 10° ESE visible
14 Dec 6.5 06:08:15 10° WSW 06:14:25 32° S 06:20:13 10° ESE visible
15 Dec 7.3 03:22:42 17° SE 03:22:42 17° SE 03:25:31 10° ESE visible
15 Dec 6.5 05:09:04 17° SW 05:13:30 31° S 05:19:24 10° ESE visible
16 Dec 6.5 04:12:01 28° S 04:12:34 28° SSE 04:18:26 10° ESE visible
16 Dec 6.4 05:59:08 10° WSW 06:05:28 33° S 06:11:23 10° ESE visible
17 Dec 7.3 03:14:54 18° SE 03:14:54 18° SE 03:17:17 10° ESE visible
17 Dec 6.4 05:01:17 24° SW 05:04:31 33° S 05:10:39 10° ESE visible
18 Dec 6.4 04:04:07 32° SSE 04:04:07 32° SSE 04:09:47 10° ESE visible
18 Dec 6.4 05:50:29 11° WSW 05:56:28 32° S 06:02:27 10° SE visible
19 Dec 7.4 03:06:54 17° ESE 03:06:54 17° ESE 03:08:44 10° ESE visible
19 Dec 6.3 04:53:17 29° SW 04:55:31 34° S 05:01:48 10° ESE visible
19 Dec 6.8 06:42:43 10° WSW 06:48:19 24° SSW 06:53:38 10° SE visible
20 Dec 6.5 03:56:02 32° SSE 03:56:02 32° SSE 04:00:59 10° ESE visible
20 Dec 6.5 05:42:24 14° WSW 05:47:26 29° SSW 05:53:21 10° SE visible
21 Dec 7.6 02:58:47 15° ESE 02:58:47 15° ESE 03:00:02 10° ESE visible
21 Dec 6.3 04:45:10 31° SSW 04:46:30 33° S 04:52:48 10° SE visible
21 Dec 7.0 06:34:10 10° WSW 06:39:13 20° SSW 06:44:03 10° SSE visible
22 Dec 6.7 03:47:54 29° SSE 03:47:54 29° SSE 03:52:04 10° ESE visible
22 Dec 6.7 05:34:16 16° WSW 05:38:22 25° SSW 05:44:01 10° SE visible
23 Dec 7.8 02:50:38 12° ESE 02:50:38 12° ESE 02:51:10 10° ESE visible
23 Dec 6.4 04:37:01 30° SSW 04:37:25 30° SSW 04:43:38 10° SE visible
23 Dec 7.2 06:26:03 10° WSW 06:30:04 15° SSW 06:33:57 10° S visible
